Wind_Speed
42 42 41 40 40 39 39 39 38 37 36 35 34 34 33 33 32 32 31 31 30 29 28 28 27 27 27 27 27 27 26 27 27 27 28 28 29 30 30 31 32 33 33
45 45 45 43 43 42 41 42 41 40 38 37 37 37 36 35 34 34 33 33 32 31 31 30 29 29 29 29 28 28 28 28 28 29 29 30 30 31 31 32 33 34 34
48 48 48 46 45 45 44 45 44 42 41 39 39 39 38 38 37 36 35 34 34 34 33 32 32 31 31 30 30 30 29 29 30 30 30 31 31 32 32 33 34 35 36
51 51 50 49 48 48 47 46 45 45 43 42 41 41 40 39 39 38 37 37 36 36 35 34 33 33 33 32 32 31 31 31 31 31 31 32 32 32 33 33 34 35 37
53 53 52 52 51 50 49 47 47 46 45 44 43 43 42 41 41 40 40 39 38 38 37 36 35 35 35 34 34 33 32 32 32 32 32 33 33 33 34 35 35 36 38
55 54 54 53 53 52 50 49 48 47 47 46 45 45 44 43 43 42 42 41 40 39 39 38 38 37 36 36 35 35 34 34 33 33 33 34 34 34 35 36 37 38 39
56 56 55 54 54 54 53 52 50 49 49 48 48 47 46 45 44 44 43 43 42 41 41 40 40 39 38 37 37 36 35 35 34 34 35 35 35 35 36 37 38 39 39
56 56 56 56 56 56 55 54 52 52 51 50 49 49 48 47 46 45 44 43 43 43 43 42 41 41 40 38 38 37 37 36 36 36 36 36 36 36 37 38 39 40 40
57 58 58 57 56 56 56 55 54 53 53 52 52 51 49 48 47 46 45 45 44 44 44 43 42 41 41 40 39 38 38 37 37 37 37 37 37 38 38 39 40 40 41
57 58 59 59 58 57 58 57 56 55 54 53 52 51 51 50 49 48 47 47 46 45 45 44 44 43 42 41 40 40 39 39 38 38 38 38 38 39 39 40 40 41 41
57 58 59 60 59 58 58 58 58 57 55 54 53 53 53 51 50 50 49 48 48 47 47 46 45 44 43 43 42 41 40 40 40 39 39 39 39 39 40 41 41 41 42
56 57 58 59 59 59 58 59 59 59 58 56 55 54 54 53 52 51 51 50 50 50 49 48 47 46 45 44 43 42 42 41 41 41 40 40 40 41 41 41 41 42 42
55 56 57 57 58 59 58 59 60 60 59 57 56 56 56 55 53 53 52 51 51 52 51 50 48 47 47 46 45 44 43 42 42 42 41 41 41 41 42 42 42 42 42
53 54 56 57 58 58 59 60 60 60 60 59 58 57 57 57 55 53 52 52 52 51 51 49 49 48 47 46 45 44 43 42 42 42 42 42 41 42 42 42 42 42 42
52 52 55 55 56 58 59 59 60 59 59 59 58 57 57 56 56 54 53 53 52 51 50 48 48 47 47 47 46 45 44 44 43 43 42 42 42 42 42 42 42 42 42
49 51 53 53 55 57 58 58 58 58 57 57 56 56 56 55 56 55 53 52 51 50 49 47 47 46 46 46 46 45 45 44 43 43 43 43 43 42 42 42 42 42 42
47 49 50 51 53 54 55 56 56 56 56 56 56 56 56 56 56 55 54 52 51 50 50 48 47 46 46 45 45 45 45 44 43 43 43 43 43 42 42 42 43 42 42
45 47 49 50 51 52 52 54 55 55 55 55 56 56 56 56 55 54 53 52 50 50 50 49 47 46 46 45 45 45 44 44 43 43 43 43 43 42 42 42 43 43 42
44 46 48 49 50 51 51 52 53 54 55 56 56 56 56 55 53 53 52 51 50 49 49 49 48 47 46 45 45 45 44 43 43 43 43 43 42 42 43 43 43 42 42
44 45 46 47 49 50 49 50 51 53 54 54 55 55 55 53 52 52 51 50 50 49 48 48 47 47 46 45 44 44 43 43 42 42 42 42 42 42 42 43 42 42 41
44 45 46 46 48 49 49 49 50 50 52 53 53 54 53 52 50 50 50 49 49 48 48 47 47 47 45 45 45 45 44 43 42 42 42 42 43 42 42 42 42 41 41
44 44 44 45 47 47 48 49 50 50 51 51 51 52 52 51 50 50 49 48 48 48 48 48 48 47 45 45 45 44 44 43 42 42 43 43 43 42 42 41 41 41 41
42 43 43 44 45 45 46 47 48 48 49 49 49 50 51 50 48 49 48 48 47 46 47 47 47 46 45 45 45 44 44 44 43 43 43 43 42 42 41 41 40 40 41
42 42 42 43 44 45 45 46 46 47 48 47 47 48 49 49 48 48 48 48 47 46 45 45 45 45 45 44 44 44 43 42 42 42 42 42 41 41 40 39 40 41 41
41 42 41 42 42 43 44 45 46 46 47 45 44 45 47 46 46 47 48 47 45 44 44 44 44 44 44 44 44 43 42 42 41 41 41 42 41 40 39 39 40 40 41
40 41 41 41 41 40 41 43 44 44 45 44 43 44 45 44 45 45 45 45 44 44 44 44 44 44 43 42 42 42 42 42 41 40 40 40 40 40 40 40 40 40 41
Wind_Direction
253 253 253 254 255 255 254 254 255 256 256 256 257 258 259 259 260 261 262 264 266 267 269 272 274 276 279 281 283 284 286 288 290 292 295 297 299 301 303 304 306 308 310
253 252 252 253 254 254 253 254 254 254 256 256 257 258 258 259 259 260 261 262 265 268 269 271 273 275 278 280 281 282 285 287 289 291 293 296 298 300 302 304 306 307 309
253 253 252 252 253 254 254 254 253 254 254 255 256 257 258 258 259 260 261 262 264 267 269 270 272 274 276 278 280 281 283 285 288 290 293 294 296 298 300 303 305 307 309
254 253 252 251 252 253 254 253 253 253 254 255 256 257 258 259 259 260 261 262 264 266 268 270 272 273 275 277 279 280 282 284 287 289 292 293 295 297 299 302 304 306 308
254 253 252 251 250 251 252 252 252 253 253 254 255 256 257 258 259 260 261 262 264 265 267 270 272 273 274 275 277 279 281 282 285 288 290 292 294 296 299 301 303 306 308
253 252 251 250 249 250 251 250 250 252 253 253 255 256 257 258 259 260 261 262 263 265 267 269 271 273 273 274 276 277 279 282 283 286 289 291 293 295 298 301 303 305 307
251 251 250 250 248 248 250 250 250 251 252 253 255 256 257 258 259 260 261 261 263 264 266 267 269 271 272 274 275 276 278 280 282 285 287 289 292 294 297 300 302 304 306
251 250 249 249 248 248 249 250 250 251 252 253 255 256 257 257 258 260 260 261 263 264 265 267 268 269 271 272 274 275 276 279 281 284 286 288 290 293 296 298 301 303 305
250 249 249 248 248 248 248 249 250 250 252 252 253 254 256 257 258 259 260 261 263 264 265 266 267 268 269 271 273 274 275 277 280 283 285 287 290 292 295 298 300 302 305
251 249 249 248 248 248 248 248 249 249 250 251 252 254 255 256 258 259 259 261 262 263 264 265 265 266 268 270 272 273 274 276 278 281 284 286 289 292 294 296 299 302 305
250 249 249 248 248 248 247 247 248 248 249 250 251 254 254 255 257 258 259 260 262 263 264 264 264 266 267 269 270 272 273 275 277 280 283 285 288 290 293 295 298 301 304
250 249 248 248 248 247 247 247 247 248 249 249 250 252 253 254 256 257 259 260 261 262 264 264 264 265 267 268 269 270 272 274 276 279 282 285 287 289 291 294 297 301 303
250 249 248 247 248 248 247 248 248 248 248 249 249 251 252 252 253 255 257 259 260 262 262 263 265 266 267 268 268 269 271 273 275 278 281 284 287 290 291 294 297 300 302
251 249 248 248 248 248 248 248 249 248 248 248 249 250 251 252 252 253 255 257 259 260 261 263 264 266 267 268 268 269 270 272 275 277 280 283 286 289 292 294 297 298 300
251 249 249 249 249 249 250 249 249 248 248 248 250 250 251 252 253 253 253 255 258 259 261 262 263 265 267 268 268 269 270 272 274 277 280 283 285 288 291 294 296 298 299
250 250 249 249 250 249 250 249 249 248 248 248 249 250 250 251 252 252 251 254 257 259 261 261 262 264 266 267 267 269 270 272 274 277 280 283 285 288 291 293 296 297 299
252 251 250 250 250 250 250 249 249 249 248 247 248 248 249 251 252 252 251 252 255 257 260 261 263 264 265 266 266 267 270 272 274 277 280 283 284 287 290 293 296 297 299
252 251 250 250 251 251 251 250 249 247 246 246 247 247 248 250 252 252 252 253 254 256 259 261 262 263 264 265 265 266 268 270 273 276 279 281 284 286 289 292 295 296 298
252 251 251 252 251 251 250 249 249 248 247 245 246 247 247 249 251 252 253 253 254 255 257 260 261 262 262 263 264 265 267 269 272 275 277 280 283 285 288 291 293 295 298
252 251 254 253 252 251 251 250 250 249 247 246 246 246 246 248 249 251 253 254 254 255 257 258 259 260 261 263 264 265 267 269 271 274 277 280 283 285 288 290 292 294 297
253 253 253 253 251 251 250 250 249 249 246 246 247 246 246 246 247 250 252 253 253 255 256 257 258 259 260 262 264 264 267 270 271 274 277 280 283 285 288 290 291 293 295
253 252 251 250 250 251 250 251 251 249 247 247 247 246 245 246 248 249 250 251 253 254 256 257 258 259 259 262 263 264 267 269 271 274 276 279 282 284 287 289 290 292 295
254 252 251 250 249 251 251 251 250 248 246 247 248 247 246 246 248 248 249 250 253 254 255 257 257 258 259 261 262 263 266 269 271 273 275 279 282 284 286 287 288 291 294
253 252 251 252 252 252 251 250 249 246 245 247 249 247 246 245 246 248 249 250 252 253 255 256 257 258 259 260 261 263 265 268 270 272 275 278 280 283 285 287 288 290 293
253 252 253 253 253 252 251 249 247 246 245 247 248 246 245 245 246 248 249 250 251 252 253 255 256 256 257 259 260 262 264 267 269 272 275 278 279 282 284 286 289 291 294
254 254 253 253 253 252 250 248 247 246 246 247 248 248 246 245 246 248 249 249 250 252 253 253 254 254 256 259 261 262 264 267 270 273 274 276 279 282 284 287 289 291 294
Height
5799 5800 5801 5803 5804 5806 5807 5808 5809 5810 5811 5812 5813 5813 5814 5815 5815 5815 5816 5816 5816 5815 5815 5814 5814 5813 5812 5811 5810 5808 5807 5805 5803 5801 5799 5797 5794 5791 5788 5785 5782 5778 5774
5789 5791 5792 5794 5796 5797 5798 5800 5801 5802 5804 5805 5805 5806 5807 5808 5808 5809 5809 5809 5809 5809 5809 5808 5808 5807 5806 5805 5804 5802 5801 5799 5797 5795 5793 5791 5788 5785 5782 5779 5776 5772 5768
5778 5780 5782 5784 5786 5788 5789 5791 5792 5794 5795 5797 5798 5798 5799 5800 5801 5801 5802 5802 5802 5802 5802 5802 5801 5801 5800 5799 5797 5796 5795 5793 5791 5789 5787 5785 5782 5779 5776 5773 5769 5765 5761
5766 5769 5771 5774 5776 5778 5780 5781 5783 5785 5787 5788 5789 5791 5791 5792 5793 5793 5794 5795 5795 5795 5795 5795 5795 5794 5793 5792 5791 5790 5788 5787 5785 5783 5781 5778 5775 5772 5769 5766 5762 5759 5754
5754 5756 5759 5762 5765 5767 5769 5771 5773 5775 5777 5779 5781 5782 5783 5784 5784 5785 5786 5787 5787 5788 5788 5788 5787 5787 5786 5785 5784 5783 5781 5780 5778 5776 5774 5771 5769 5766 5762 5759 5756 5751 5747
5740 5743 5746 5749 5752 5755 5758 5760 5763 5765 5767 5769 5770 5772 5774 5775 5775 5776 5777 5778 5779 5779 5780 5780 5779 5779 5778 5778 5777 5776 5774 5773 5771 5769 5767 5764 5762 5759 5756 5752 5748 5744 5740
5726 5729 5733 5736 5739 5742 5746 5749 5751 5753 5756 5758 5760 5762 5763 5765 5766 5767 5768 5769 5770 5770 5771 5771 5771 5771 5770 5769 5769 5768 5767 5765 5764 5762 5759 5757 5754 5751 5748 5745 5741 5736 5732
5712 5715 5719 5722 5726 5729 5733 5737 5739 5742 5745 5747 5749 5750 5752 5755 5756 5758 5759 5760 5761 5761 5761 5762 5762 5762 5761 5761 5760 5760 5759 5757 5756 5754 5752 5749 5747 5743 5740 5737 5733 5728 5724
5697 5701 5704 5708 5712 5715 5719 5723 5727 5730 5732 5735 5737 5739 5741 5744 5747 5748 5749 5750 5751 5751 5752 5752 5752 5752 5752 5752 5752 5751 5750 5749 5748 5746 5744 5741 5739 5736 5732 5728 5724 5720 5715
5682 5686 5689 5693 5697 5701 5705 5709 5713 5717 5719 5722 5724 5727 5731 5733 5735 5737 5739 5740 5741 5741 5742 5742 5742 5743 5743 5743 5742 5742 5742 5740 5739 5737 5735 5733 5730 5727 5724 5720 5716 5712 5707
5667 5670 5674 5678 5683 5687 5691 5695 5699 5703 5706 5709 5712 5715 5718 5720 5722 5725 5728 5729 5730 5731 5731 5732 5732 5733 5733 5733 5733 5733 5732 5731 5730 5728 5726 5724 5722 5718 5715 5711 5707 5703 5698
5652 5655 5658 5663 5667 5672 5676 5680 5684 5688 5692 5696 5699 5702 5705 5708 5711 5713 5715 5717 5719 5720 5720 5720 5721 5722 5723 5723 5723 5723 5723 5722 5720 5719 5717 5715 5712 5709 5706 5702 5698 5694 5689
5637 5640 5644 5648 5652 5657 5661 5665 5670 5674 5678 5682 5686 5689 5692 5695 5698 5700 5702 5704 5706 5708 5709 5709 5710 5711 5712 5712 5713 5713 5712 5712 5710 5709 5707 5705 5703 5700 5697 5693 5689 5685 5680
5623 5626 5629 5633 5638 5642 5646 5650 5654 5658 5663 5667 5671 5675 5678 5681 5684 5687 5689 5691 5693 5695 5697 5699 5700 5700 5701 5701 5702 5702 5702 5701 5700 5699 5698 5696 5693 5690 5687 5684 5680 5675 5671
5609 5612 5615 5619 5623 5626 5630 5634 5639 5643 5648 5652 5656 5660 5664 5667 5670 5673 5676 5678 5680 5682 5685 5688 5689 5690 5690 5690 5691 5691 5691 5691 5690 5689 5687 5686 5683 5681 5677 5674 5670 5666 5661
5594 5598 5601 5604 5608 5611 5615 5619 5624 5628 5633 5638 5642 5646 5650 5653 5657 5660 5663 5665 5667 5669 5672 5676 5677 5678 5678 5679 5679 5679 5680 5680 5680 5679 5677 5675 5673 5671 5668 5664 5660 5656 5652
5581 5584 5587 5590 5594 5597 5600 5604 5609 5614 5618 5623 5627 5631 5636 5640 5643 5647 5650 5652 5655 5656 5659 5663 5665 5666 5667 5668 5669 5669 5669 5669 5669 5668 5667 5665 5663 5660 5657 5654 5650 5646 5642
5568 5571 5574 5577 5580 5583 5586 5590 5594 5599 5604 5608 5613 5617 5621 5626 5629 5633 5636 5639 5642 5644 5646 5649 5652 5654 5655 5657 5657 5658 5658 5658 5658 5657 5656 5654 5652 5650 5647 5644 5640 5636 5632
5556 5559 5562 5565 5568 5571 5573 5577 5580 5585 5589 5594 5599 5603 5608 5612 5616 5620 5623 5626 5629 5632 5634 5636 5639 5641 5643 5645 5645 5646 5647 5647 5647 5646 5645 5643 5642 5640 5637 5634 5630 5626 5623
5544 5547 5550 5552 5555 5558 5561 5564 5567 5571 5576 5580 5585 5589 5594 5599 5603 5607 5610 5613 5616 5619 5621 5624 5626 5629 5631 5633 5633 5635 5635 5636 5635 5635 5634 5633 5631 5629 5626 5623 5620 5617 5613
5533 5535 5538 5540 5543 5546 5549 5551 5554 5558 5562 5567 5572 5576 5581 5586 5590 5593 5597 5601 5604 5607 5609 5611 5614 5616 5619 5621 5622 5623 5624 5624 5624 5624 5623 5622 5621 5619 5616 5613 5610 5607 5603
5521 5523 5525 5528 5531 5534 5536 5539 5541 5545 5550 5554 5559 5563 5568 5572 5576 5580 5584 5588 5591 5594 5597 5599 5602 5604 5608 5609 5610 5611 5612 5613 5614 5614 5612 5611 5610 5608 5606 5603 5600 5597 5593
5509 5511 5513 5516 5519 5521 5524 5526 5529 5533 5538 5542 5546 5551 5555 5560 5564 5567 5571 5575 5578 5581 5585 5587 5590 5592 5595 5597 5599 5600 5600 5601 5603 5603 5601 5600 5599 5597 5595 5593 5590 5587 5584
5498 5500 5502 5504 5507 5509 5512 5514 5517 5521 5526 5530 5534 5538 5543 5548 5551 5555 5559 5563 5566 5569 5573 5575 5578 5581 5583 5585 5586 5588 5589 5590 5591 5591 5590 5590 5588 5587 5585 5582 5580 5577 5574
5487 5488 5491 5493 5495 5498 5500 5503 5506 5509 5514 5519 5522 5526 5530 5535 5540 5543 5547 5551 5554 5558 5560 5563 5566 5568 5571 5573 5574 5576 5577 5578 5579 5580 5580 5579 5578 5576 5574 5572 5570 5567 5564
5476 5478 5480 5482 5484 5486 5489 5491 5494 5498 5503 5507 5511 5515 5519 5523 5528 5531 5535 5539 5543 5546 5549 5551 5554 5557 5560 5561 5563 5565 5566 5567 5568 5569 5569 5568 5567 5565 5564 5563 5560 5557 5554